カタログに戻る

ATLAS CENTAUR R/B

運用中UNKNOWN
NORAD 13007·ROCKET BODY·🇺🇸 United States

打ち上げ Dec 15, 1981 から Cape Canaveral Space Force Station

Loading…

次のパス (今後24時間)

TLE

最新Source: Space-Track

元期: Sep 14, 2026, 06:00 UTC

1 13007U 81119B   26257.25043743  .00018988 -20193-5  67083-3 0  9993
2 13007  23.5143 217.0182 2467641 114.4506 273.2103 10.44760266198847

AllMySatでATLAS CENTAUR R/Bをリアルタイム追跡

Download on the App Store